Farmington, NM

10:50 AM MDT on March 28, 2017 (GMT -0600)
Four Corners Regional

Weather History for KFMN - April, 2013

Change the Weather History Date:

Saturday, April 27, 2013

  Actual Average Record
Temperature  
Mean Temperature 52 °F -  
Max Temperature 75 °F 67 °F 79 °F (1981)
Min Temperature 32 °F 36 °F 23 °F (1984)
Degree Days  
Heating Degree Days 12    
Growing Degree Days 2 (Base 50)    
Moisture  
Dew Point 14 °F    
Average Humidity 23    
Maximum Humidity 55    
Minimum Humidity 4    
Precipitation  
Precipitation 0.00 in - - ()
Sea Level Pressure  
Sea Level Pressure 30.12 in    
Wind  
Wind Speed 7 mph (North)    
Max Wind Speed 17 mph    
Max Gust Speed 22 mph    
Visibility 10 miles    
Events      
Averages and records for this station are not official NWS values.
T = Trace of Precipitation, MM = Missing Value Source: NWS Daily Summary

Daily Weather History Graph

Daily Weather History Graph

Search for Another Location

Airport or City:

Trip Planner

Search our weather history database for the weather conditions in past years. The results will help you decide how hot, cold, wet, or windy it might be!

Date:

Astronomy

Apr. 27, 2013 Rise Set
Actual Time 6:23 AM MDT 7:58 PM MDT
Civil Twilight 5:55 AM MDT 8:25 PM MDT
Nautical Twilight 5:22 AM MDT 8:58 PM MDT
Astronomical Twilight 4:47 AM MDT 9:34 PM MDT
Moon 10:28 PM MDT (4/27) 7:47 AM MDT (4/27)
Length of Visible Light 14h 29m
Length of Day
13h 34m
Waning Gibbous, 95% of the Moon is Illuminated
Apr 27
Waning Gibbous
May 2
Last Quarter
May 9
New
May 17
First Quarter
May 24
Full

Hourly Weather History & Observations

Time (MDT) Temp. Windchill Dew Point Humidity Pressure Visibility Wind Dir Wind Speed Gust Speed Precip Events Conditions
12:53 AM 43.0 °F 38.8 °F 17.1 °F 35% 30.17 in 10.0 mi NE 6.9 mph - N/A   Clear
1:53 AM 39.9 °F 34.5 °F 17.1 °F 40% 30.17 in 10.0 mi NE 8.1 mph - N/A   Clear
2:53 AM 37.9 °F 35.5 °F 19.0 °F 47% 30.17 in 10.0 mi East 3.5 mph - N/A   Clear
3:53 AM 36.0 °F 31.1 °F 19.0 °F 50% 30.17 in 10.0 mi ENE 5.8 mph - N/A   Clear
4:53 AM 36.0 °F 29.6 °F 19.9 °F 52% 30.19 in 10.0 mi NE 8.1 mph - N/A   Clear
5:53 AM 35.1 °F 32.2 °F 19.0 °F 52% 30.20 in 10.0 mi East 3.5 mph - N/A   Clear
6:53 AM 36.0 °F 31.1 °F 21.0 °F 55% 30.22 in 10.0 mi ENE 5.8 mph - N/A   Clear
7:53 AM 44.1 °F 39.5 °F 21.9 °F 42% 30.21 in 10.0 mi East 8.1 mph - N/A   Clear
8:53 AM 48.9 °F - 24.1 °F 38% 30.22 in 10.0 mi ESE 8.1 mph - N/A   Clear
9:53 AM 55.9 °F - 25.0 °F 30% 30.19 in 10.0 mi SE 6.9 mph - N/A   Clear
10:53 AM 61.0 °F - 21.9 °F 22% 30.20 in 10.0 mi Calm Calm - N/A   Clear
11:53 AM 66.9 °F - 18.0 °F 15% 30.18 in 10.0 mi Variable 3.5 mph - N/A   Clear
12:53 PM 69.1 °F - 12.9 °F 11% 30.15 in 10.0 mi SSW 9.2 mph - N/A   Clear
1:53 PM 70.0 °F - 9.0 °F 9% 30.13 in 10.0 mi SSE 6.9 mph 18.4 mph N/A   Clear
2:53 PM 73.0 °F - 10.9 °F 9% 30.09 in 10.0 mi NW 9.2 mph - N/A   Clear
3:53 PM 73.0 °F - 8.1 °F 8% 30.06 in 10.0 mi WNW 9.2 mph - N/A   Clear
4:53 PM 73.0 °F - 7.0 °F 8% 30.04 in 10.0 mi West 13.8 mph 21.9 mph N/A   Clear
5:53 PM 73.0 °F - 7.0 °F 8% 30.04 in 10.0 mi WSW 12.7 mph 20.7 mph N/A   Clear
6:53 PM 71.1 °F - 7.0 °F 8% 30.03 in 10.0 mi West 17.3 mph 21.9 mph N/A   Clear
7:53 PM 66.9 °F - 7.0 °F 10% 30.02 in 10.0 mi WNW 15.0 mph - N/A   Clear
8:53 PM 59.0 °F - 8.1 °F 13% 30.04 in 10.0 mi West 5.8 mph - N/A   Clear
9:53 PM 55.9 °F - 7.0 °F 14% 30.05 in 10.0 mi West 3.5 mph - N/A   Clear
10:53 PM 57.0 °F - 8.1 °F 14% 30.04 in 10.0 mi West 3.5 mph - N/A   Clear
11:53 PM 54.0 °F - 7.0 °F 15% 30.03 in 10.0 mi Calm Calm - N/A   Clear